Time,TemperatureF,DewpointF,PressureIn,WindDirection,WindDirectionDegrees,WindSpeedMPH,WindSpeedGustMPH,Humidity,HourlyPrecipIn,Conditions,Clouds,dailyrainin,SoftwareType,DateUTC
2013-07-25 00:13:00,74.7,74.0,29.83,ESE,122,0.0,0.0,97,0.00,,,0.00,weatherlink.com 1.10,2013-07-25 04:13:00,
2013-07-25 00:28:00,74.4,74.0,29.82,ESE,123,0.0,0.0,97,0.00,,,0.00,weatherlink.com 1.10,2013-07-25 04:28:00,
2013-07-25 00:43:00,74.2,73.0,29.82,ESE,123,0.0,0.0,97,0.00,,,0.00,weatherlink.com 1.10,2013-07-25 04:43:00,
2013-07-25 00:58:00,74.1,74.0,29.82,ESE,123,0.0,0.0,98,0.00,,,0.00,weatherlink.com 1.10,2013-07-25 04:58:00,
2013-07-25 01:13:00,73.7,73.0,29.82,ESE,123,0.0,0.0,98,0.00,,,0.00,weatherlink.com 1.10,2013-07-25 05:13:00,
2013-07-25 01:28:00,73.5,73.0,29.81,ESE,123,0.0,0.0,98,0.00,,,0.00,weatherlink.com 1.10,2013-07-25 05:28:00,
2013-07-25 01:43:00,73.5,73.0,29.81,ESE,123,0.0,0.0,98,0.00,,,0.00,weatherlink.com 1.10,2013-07-25 05:43:00,
2013-07-25 01:58:00,73.7,73.0,29.80,ESE,123,0.0,0.0,99,0.00,,,0.00,weatherlink.com 1.10,2013-07-25 05:58:00,
2013-07-25 02:13:00,73.8,74.0,29.80,ESE,122,0.0,0.0,99,0.00,,,0.00,weatherlink.com 1.10,2013-07-25 06:13:00,
2013-07-25 02:28:00,73.9,74.0,29.80,ESE,123,0.0,0.0,99,0.00,,,0.00,weatherlink.com 1.10,2013-07-25 06:28:00,
2013-07-25 02:43:00,74.2,74.0,29.80,ESE,123,0.0,0.0,99,0.00,,,0.00,weatherlink.com 1.10,2013-07-25 06:43:00,
2013-07-25 02:58:00,74.0,74.0,29.79,ESE,123,0.0,0.0,99,0.00,,,0.00,weatherlink.com 1.10,2013-07-25 06:58:00,
2013-07-25 03:13:00,73.7,73.0,29.79,ESE,123,0.0,0.0,99,0.00,,,0.00,weatherlink.com 1.10,2013-07-25 07:13:00,
2013-07-25 03:28:00,73.5,73.0,29.79,ESE,123,0.0,0.0,99,0.00,,,0.00,weatherlink.com 1.10,2013-07-25 07:28:00,
2013-07-25 03:43:00,73.7,73.0,29.79,SW,229,0.0,0.0,99,0.00,,,0.00,weatherlink.com 1.10,2013-07-25 07:43:00,
2013-07-25 03:58:00,73.7,73.0,29.79,SW,229,0.0,0.0,99,0.00,,,0.00,weatherlink.com 1.10,2013-07-25 07:58:00,
2013-07-25 04:13:00,73.4,73.0,29.79,SW,229,0.0,0.0,99,0.00,,,0.00,weatherlink.com 1.10,2013-07-25 08:13:00,
2013-07-25 04:28:00,73.3,73.0,29.79,SW,229,0.0,0.0,99,0.00,,,0.00,weatherlink.com 1.10,2013-07-25 08:28:00,
2013-07-25 04:43:00,73.3,73.0,29.79,SW,229,0.0,0.0,99,0.00,,,0.00,weatherlink.com 1.10,2013-07-25 08:43:00,
2013-07-25 04:58:00,73.0,73.0,29.79,SW,229,0.0,0.0,99,0.00,,,0.00,weatherlink.com 1.10,2013-07-25 08:58:00,
2013-07-25 05:13:00,72.7,72.0,29.80,SW,229,0.0,0.0,99,0.00,,,0.00,weatherlink.com 1.10,2013-07-25 09:13:00,
2013-07-25 05:28:00,72.4,72.0,29.80,SW,229,0.0,0.0,99,0.00,,,0.00,weatherlink.com 1.10,2013-07-25 09:28:00,
2013-07-25 05:43:00,72.0,72.0,29.80,SW,229,0.0,0.0,99,0.00,,,0.00,weatherlink.com 1.10,2013-07-25 09:43:00,
2013-07-25 05:59:00,71.8,72.0,29.80,SW,229,0.0,0.0,99,0.00,,,0.00,weatherlink.com 1.10,2013-07-25 09:59:00,
2013-07-25 06:14:00,71.5,71.0,29.82,SW,229,0.0,0.0,99,0.00,,,0.00,weatherlink.com 1.10,2013-07-25 10:14:00,
2013-07-25 06:29:00,71.5,71.0,29.82,SW,229,0.0,0.0,99,0.00,,,0.00,weatherlink.com 1.10,2013-07-25 10:29:00,
2013-07-25 06:44:00,72.0,72.0,29.83,SW,229,0.0,0.0,99,0.00,,,0.00,weatherlink.com 1.10,2013-07-25 10:44:00,
2013-07-25 06:59:00,72.2,72.0,29.84,WSW,254,0.0,1.0,99,0.00,,,0.00,weatherlink.com 1.10,2013-07-25 10:59:00,
2013-07-25 07:14:00,72.6,72.0,29.84,WSW,253,0.0,1.0,99,0.00,,,0.00,weatherlink.com 1.10,2013-07-25 11:14:00,
2013-07-25 07:29:00,72.7,72.0,29.85,NW,316,0.0,2.0,99,0.00,,,0.00,weatherlink.com 1.10,2013-07-25 11:29:00,
2013-07-25 07:44:00,72.9,73.0,29.85,WNW,297,0.0,1.0,99,0.00,,,0.00,weatherlink.com 1.10,2013-07-25 11:44:00,
2013-07-25 07:59:00,73.2,73.0,29.86,NNE,25,0.0,2.0,98,0.00,,,0.00,weatherlink.com 1.10,2013-07-25 11:59:00,
2013-07-25 08:14:00,73.6,73.0,29.87,SW,226,0.0,1.0,98,0.00,,,0.00,weatherlink.com 1.10,2013-07-25 12:14:00,
2013-07-25 08:29:00,75.0,74.0,29.87,NNW,328,1.0,2.0,96,0.00,,,0.00,weatherlink.com 1.10,2013-07-25 12:29:00,
2013-07-25 08:44:00,76.9,74.0,29.88,WSW,245,0.0,3.0,91,0.00,,,0.00,weatherlink.com 1.10,2013-07-25 12:44:00,
2013-07-25 08:59:00,77.7,74.0,29.88,WNW,282,0.0,3.0,88,0.00,,,0.00,weatherlink.com 1.10,2013-07-25 12:59:00,
2013-07-25 09:14:00,78.6,74.0,29.88,South,184,0.0,3.0,85,0.00,,,0.00,weatherlink.com 1.10,2013-07-25 13:14:00,
2013-07-25 09:29:00,79.6,74.0,29.88,West,277,1.0,4.0,82,0.00,,,0.00,weatherlink.com 1.10,2013-07-25 13:29:00,
2013-07-25 09:44:00,80.5,74.0,29.88,SW,236,0.0,4.0,80,0.00,,,0.00,weatherlink.com 1.10,2013-07-25 13:44:00,
2013-07-25 09:59:00,81.4,75.0,29.88,WSW,245,0.0,5.0,80,0.00,,,0.00,weatherlink.com 1.10,2013-07-25 13:59:00,
2013-07-25 10:14:00,83.3,75.0,29.89,ESE,107,0.0,3.0,76,0.00,,,0.00,weatherlink.com 1.10,2013-07-25 14:14:00,
2013-07-25 10:29:00,84.3,74.0,29.89,SE,132,0.0,3.0,72,0.00,,,0.00,weatherlink.com 1.10,2013-07-25 14:29:00,
2013-07-25 10:44:00,85.8,75.0,29.88,East,101,0.0,3.0,71,0.00,,,0.00,weatherlink.com 1.10,2013-07-25 14:44:00,
2013-07-25 10:59:00,85.7,75.0,29.89,SSE,154,3.0,4.0,71,0.00,,,0.00,weatherlink.com 1.10,2013-07-25 14:59:00,
2013-07-25 11:14:00,86.4,76.0,29.89,WSW,242,0.0,3.0,72,0.00,,,0.00,weatherlink.com 1.10,2013-07-25 15:14:00,
2013-07-25 11:29:00,87.2,75.0,29.89,ENE,75,2.0,3.0,66,0.00,,,0.00,weatherlink.com 1.10,2013-07-25 15:29:00,
2013-07-25 11:44:00,87.5,74.0,29.90,West,270,2.0,4.0,65,0.00,,,0.00,weatherlink.com 1.10,2013-07-25 15:44:00,
2013-07-25 11:59:00,88.6,76.0,29.89,SW,222,0.0,3.0,67,0.00,,,0.00,weatherlink.com 1.10,2013-07-25 15:59:00,
2013-07-25 12:14:00,89.1,75.0,29.90,North,356,1.0,3.0,64,0.00,,,0.00,weatherlink.com 1.10,2013-07-25 16:14:00,
2013-07-25 12:30:00,90.0,76.0,29.89,SE,139,0.0,4.0,64,0.00,,,0.00,weatherlink.com 1.10,2013-07-25 16:30:00,
2013-07-25 12:45:00,90.0,74.0,29.89,West,269,0.0,4.0,60,0.00,,,0.00,weatherlink.com 1.10,2013-07-25 16:45:00,
2013-07-25 13:00:00,91.1,75.0,29.89,ENE,58,0.0,3.0,60,0.00,,,0.00,weatherlink.com 1.10,2013-07-25 17:00:00,
2013-07-25 13:15:00,91.0,74.0,29.89,SSE,149,1.0,3.0,58,0.00,,,0.00,weatherlink.com 1.10,2013-07-25 17:15:00,
2013-07-25 13:30:00,91.3,77.0,29.89,ENE,68,0.0,2.0,63,0.00,,,0.00,weatherlink.com 1.10,2013-07-25 17:30:00,
2013-07-25 13:45:00,91.4,77.0,29.89,NW,307,0.0,3.0,62,0.00,,,0.00,weatherlink.com 1.10,2013-07-25 17:45:00,
2013-07-25 14:00:00,90.6,76.0,29.89,NE,45,0.0,3.0,63,0.00,,,0.00,weatherlink.com 1.10,2013-07-25 18:00:00,
2013-07-25 14:15:00,91.5,76.0,29.89,SW,231,0.0,2.0,60,0.00,,,0.00,weatherlink.com 1.10,2013-07-25 18:15:00,
2013-07-25 14:30:00,91.6,76.0,29.89,WSW,252,0.0,2.0,60,0.00,,,0.00,weatherlink.com 1.10,2013-07-25 18:30:00,
2013-07-25 14:45:00,90.2,76.0,29.89,West,271,0.0,2.0,63,0.00,,,0.00,weatherlink.com 1.10,2013-07-25 18:45:00,
2013-07-25 15:00:00,90.4,76.0,29.89,ESE,112,0.0,1.0,63,0.00,,,0.00,weatherlink.com 1.10,2013-07-25 19:00:00,
2013-07-25 15:15:00,90.4,78.0,29.89,SW,222,0.0,1.0,66,0.00,,,0.00,weatherlink.com 1.10,2013-07-25 19:15:00,
2013-07-25 15:30:00,89.4,76.0,29.89,SW,216,0.0,0.0,65,0.00,,,0.00,weatherlink.com 1.10,2013-07-25 19:30:00,
2013-07-25 15:45:00,90.8,74.0,29.88,SW,222,0.0,2.0,59,0.00,,,0.00,weatherlink.com 1.10,2013-07-25 19:45:00,
2013-07-25 16:00:00,91.6,76.0,29.88,SE,146,1.0,3.0,61,0.00,,,0.00,weatherlink.com 1.10,2013-07-25 20:00:00,
2013-07-25 16:15:00,91.2,74.0,29.88,NNE,16,2.0,2.0,58,0.00,,,0.00,weatherlink.com 1.10,2013-07-25 20:15:00,
2013-07-25 16:30:00,90.7,76.0,29.88,SSW,213,0.0,3.0,62,0.00,,,0.00,weatherlink.com 1.10,2013-07-25 20:30:00,
2013-07-25 16:45:00,90.1,75.0,29.88,WNW,292,0.0,4.0,61,0.00,,,0.00,weatherlink.com 1.10,2013-07-25 20:45:00,
2013-07-25 17:15:00,89.1,75.0,29.89,SW,235,0.0,1.0,64,0.00,,,0.00,weatherlink.com 1.10,2013-07-25 21:15:00,
2013-07-25 17:30:00,87.9,77.0,29.89,SW,219,0.0,3.0,69,0.00,,,0.00,weatherlink.com 1.10,2013-07-25 21:30:00,
2013-07-25 17:45:00,88.0,77.0,29.89,NW,326,0.0,2.0,69,0.00,,,0.00,weatherlink.com 1.10,2013-07-25 21:45:00,
2013-07-25 18:00:00,88.9,77.0,29.89,SSW,198,0.0,2.0,67,0.00,,,0.00,weatherlink.com 1.10,2013-07-25 22:00:00,
2013-07-25 18:15:00,88.2,76.0,29.89,NE,51,0.0,1.0,67,0.00,,,0.00,weatherlink.com 1.10,2013-07-25 22:15:00,
2013-07-25 18:30:00,87.4,78.0,29.90,SE,139,0.0,1.0,73,0.00,,,0.00,weatherlink.com 1.10,2013-07-25 22:30:00,
2013-07-25 18:45:00,86.6,77.0,29.91,SE,137,0.0,3.0,74,0.00,,,0.00,weatherlink.com 1.10,2013-07-25 22:45:00,
2013-07-25 19:00:00,86.2,76.0,29.91,SE,141,0.0,2.0,72,0.00,,,0.00,weatherlink.com 1.10,2013-07-25 23:00:00,
2013-07-25 19:15:00,86.6,77.0,29.91,East,100,0.0,2.0,72,0.00,,,0.00,weatherlink.com 1.10,2013-07-25 23:15:00,
2013-07-25 19:30:00,85.6,76.0,29.92,SE,145,0.0,1.0,74,0.00,,,0.00,weatherlink.com 1.10,2013-07-25 23:30:00,
2013-07-25 19:45:00,84.7,77.0,29.93,West,269,0.0,1.0,77,0.00,,,0.00,weatherlink.com 1.10,2013-07-25 23:45:00,
2013-07-25 20:00:00,84.0,77.0,29.93,West,270,0.0,0.0,78,0.00,,,0.00,weatherlink.com 1.10,2013-07-26 00:00:00,
2013-07-25 20:15:00,83.0,76.0,29.94,North,8,0.0,1.0,80,0.00,,,0.00,weatherlink.com 1.10,2013-07-26 00:15:00,
2013-07-25 20:30:00,81.8,76.0,29.95,North,8,0.0,0.0,83,0.00,,,0.00,weatherlink.com 1.10,2013-07-26 00:30:00,
2013-07-25 20:45:00,80.7,76.0,29.95,North,8,0.0,0.0,85,0.00,,,0.00,weatherlink.com 1.10,2013-07-26 00:45:00,
2013-07-25 21:00:00,79.7,76.0,29.95,North,8,0.0,0.0,87,0.00,,,0.00,weatherlink.com 1.10,2013-07-26 01:00:00,
2013-07-25 21:15:00,78.8,75.0,29.95,North,8,0.0,0.0,89,0.00,,,0.00,weatherlink.com 1.10,2013-07-26 01:15:00,
2013-07-25 21:30:00,78.0,75.0,29.96,North,8,0.0,0.0,91,0.00,,,0.00,weatherlink.com 1.10,2013-07-26 01:30:00,
2013-07-25 21:45:00,77.6,75.0,29.97,North,8,0.0,0.0,92,0.00,,,0.00,weatherlink.com 1.10,2013-07-26 01:45:00,
2013-07-25 22:00:00,77.3,75.0,29.97,North,8,0.0,0.0,93,0.00,,,0.00,weatherlink.com 1.10,2013-07-26 02:00:00,
2013-07-25 22:16:00,77.0,75.0,29.98,North,8,0.0,0.0,94,0.00,,,0.00,weatherlink.com 1.10,2013-07-26 02:16:00,
2013-07-25 22:30:00,76.6,75.0,29.98,North,8,0.0,0.0,95,0.00,,,0.00,weatherlink.com 1.10,2013-07-26 02:30:00,
2013-07-25 22:45:00,76.2,75.0,29.99,North,8,0.0,0.0,96,0.00,,,0.00,weatherlink.com 1.10,2013-07-26 02:45:00,
2013-07-25 23:00:00,76.0,75.0,29.99,North,8,0.0,0.0,96,0.00,,,0.00,weatherlink.com 1.10,2013-07-26 03:00:00,
2013-07-25 23:15:00,75.6,74.0,29.99,North,8,0.0,0.0,96,0.00,,,0.00,weatherlink.com 1.10,2013-07-26 03:15:00,
2013-07-25 23:30:00,75.1,74.0,29.99,North,8,0.0,0.0,97,0.00,,,0.00,weatherlink.com 1.10,2013-07-26 03:30:00,
2013-07-25 23:45:00,74.8,74.0,29.99,North,8,0.0,0.0,97,0.00,,,0.00,weatherlink.com 1.10,2013-07-26 03:45:00,